Domov               UVHVVR             MKGP            O straneh              
ZDRAVSTVENO VARSTVO RASTLIN
  MREŽA AGROMET. POSTAJ
 ► PROGNOSTIČNA OBVESTILA
AGROMETEOROLOŠKI PODATKI -
ARSO
OBVLADOVANJE TVEGANJ ZARADI
NEUGODNIH VREMENSKIH RAZMER
  ► NARAVNE NESREČE
  ► SUŠA/MOČA
  ► NAMAKANJE
  ► ŽLED (gozdarstvo)
KARTOGRAFSKI PRIKAZI
SPLETNE POVEZAVE
PROJEKTI IN PUBLIKACIJE

AGROMETEOROLOŠKA MREŽA: VREMENSKE POSTAJE IN FENOLOŠKA OPAZOVANJA

Pregled podatkov za lokacijo Šentilj, meteorološka postaja 24379

Pregled senzorjev na lokaciji

ID Ime Zadnja
vrednost
Datum
zadnje
spremembe
Tip
senzorja
904 Omočenost lista (U) 0 U 24.6.2017 22:00 A730WET
905 Temperatura 2 m ( °C) 25,25 °C 24.6.2017 22:00 Generic -40 - +60 °C
906 Relativna vlaga 2 m (% RH) 71,5 % RH 24.6.2017 22:00 Generic 0 - 100 %
3858 Padavine 0.2 mm (mm) 0 mm 24.6.2017 22:00 Generic 0.2 mm

Pregled podatkov zadnjih 24 ur

Zap.
št.
Datum in čas Šentilj
Omočenost
lista
Padavine
0.2
mm
Relativna
vlaga
2
m
Temperatura
2
m
0 24.6.2017 21:00 0 0 71,5 25,25
1 24.6.2017 20:30 0 0 68,74 25,84
2 24.6.2017 20:00 0 0 66,35 26,35
3 24.6.2017 19:30 0 0 63,15 26,94
4 24.6.2017 19:00 0 0 60,34 27,79
5 24.6.2017 18:30 0 0 57,19 28,69
6 24.6.2017 18:00 0 0 58,88 28,08
7 24.6.2017 17:30 0 0 59,37 28,4
8 24.6.2017 17:00 0 0 57,75 28,52
9 24.6.2017 16:30 0 0 54,09 29,01
10 24.6.2017 16:00 0 0 49,55 29,38
11 24.6.2017 15:30 0 0 46,11 30,35
12 24.6.2017 15:00 0 0 42,64 31,53
13 24.6.2017 14:30 0 0 43,76 31,18
14 24.6.2017 14:00 0 0 47,94 30,53
15 24.6.2017 13:30 0 0 50,09 30,26
16 24.6.2017 13:00 0 0 53,21 29,5
17 24.6.2017 12:30 0 0 52,48 28,94
18 24.6.2017 12:00 0 0 51,14 28,38
19 24.6.2017 11:30 0 0 52,09 27,96
20 24.6.2017 11:00 0 0 56,75 26,86
21 24.6.2017 10:30 0 0 58,27 26,13
22 24.6.2017 10:00 0 0 60,95 25,05
23 24.6.2017 09:30 0 0 62 24,59
24 24.6.2017 09:00 0 0 63,98 24
25 24.6.2017 08:30 5 0 67,45 22,95
26 24.6.2017 08:00 10 0 70,67 22,1
27 24.6.2017 07:30 10 0 77 20,49
28 24.6.2017 07:00 10 0 82,42 19,83
29 24.6.2017 06:30 10 0 83,42 19,15
30 24.6.2017 06:00 10 0 84,64 18,34
31 24.6.2017 05:30 10 0 89,04 17,63
32 24.6.2017 05:00 10 0 96,07 16,75
33 24.6.2017 04:30 10 0 97,68 16,41
34 24.6.2017 04:00 10 0 98,17 16,26
35 24.6.2017 03:30 10 0 96,51 16,29
36 24.6.2017 03:00 10 0 86,23 17,83
37 24.6.2017 02:30 10 0 89,67 17,41
38 24.6.2017 02:00 10 0 94,04 17,05
39 24.6.2017 01:30 10 0 87,52 17,92
40 24.6.2017 01:00 10 0 83,47 18,53
41 24.6.2017 00:30 10 0 86,67 18,24
42 24.6.2017 00:00 10 0 91,26 17,9
43 23.6.2017 23:30 10 0 96,68 17,34
44 23.6.2017 23:00 10 0 96,65 17,46
© 2011 Ministrstvo za kmetijstvo, gozdarstvo in prehrano. Vse pravice pridržane.